Regional Weather Roundup
Issued by NWS

Home | Current Version | Previous Version | Text Only | Print | Product List | Glossary Off
Versions: 1 2 3 4 5 6 7 8 9 10 11 12 13 14 15 16 17 18 19 20 21 22 23 24 25 26 27 28 29 30 31 32 33 34 35 36 37 38 39 40 41 42 43 44 45 46 47 48 49 50

000
ASUS45 KPSR 220800
RWRAZ

PRELIMINARY ARIZONA REGIONAL HOURLY WEATHER ROUNDUP
NATIONAL WEATHER SERVICE PHOENIX AZ
100 AM MST TUE JUL 22 2014

NOTE: FAIR INDICATES FEW OR NO CLOUDS BELOW 12,000 FEET WITH NO
SIGNIFICANT WEATHER AND/OR OBSTRUCTIONS TO VISIBILITY.

AZZ001>003-036-220900-
NORTHWEST ARIZONA

CITY           SKY/WX    TMP DP  RH WIND       PRES   REMARKS
KINGMAN        CLEAR     70  37  29 SE8       30.10F
$$

AZZ004>008-015-016-018-220900-
NORTH CENTRAL ARIZONA

CITY           SKY/WX    TMP DP  RH WIND       PRES   REMARKS
GRAND CANYON   CLEAR     51  33  50 CALM      30.37S
WILLIAMS       CLEAR     55  37  50 SE8       30.43S
PRESCOTT       CLEAR     68  44  42 SW3       30.23S
FLAGSTAFF      CLEAR     57  35  43 W3        30.39S
PAYSON         CLEAR     72  37  28 CALM      30.25S
PAGE           CLEAR     80  29  15 CALM      30.15S
$$

AZZ009>014-017-220900-
NORTHEAST ARIZONA

CITY           SKY/WX    TMP DP  RH WIND       PRES   REMARKS
WINSLOW        NOT AVBL
SAINT JOHNS    CLOUDY    77  44  30 SW6       30.26F
WINDOW ROCK    MOCLDY    61  36  39 S6        30.35S
$$

AZZ023-220900-
GREATER PHOENIX AREA

CITY           SKY/WX    TMP DP  RH WIND       PRES   REMARKS
PHOENIX        CLEAR     92  50  23 SW3       29.88S
BUCKEYE          N/A     86  48  26 N8        29.90S
LUKE AFB       NOT AVBL
DEER VALLEY    CLEAR     89  45  21 N3        29.91F
SCOTTSDALE     CLEAR     91  48  22 N6        29.93S
MESA-GATEWAY   CLEAR     84  39  20 E3        29.93S
$$

AZZ027-028-220900-
SOUTHWEST MARICOPA COUNTY AND PINAL COUNTY

CITY           SKY/WX    TMP DP  RH WIND       PRES   REMARKS
CASA GRANDE    CLEAR     84  46  26 CALM      29.93F
$$

AZZ503-504-507>509-220900-
SOUTHEAST ARIZONA

CITY           SKY/WX    TMP DP  RH WIND       PRES   REMARKS
TUCSON         PTCLDY    85  43  22 W5        30.03F
DAVIS-MONTHAN  CLEAR     82  47  29 W5        30.01F
NOGALES        PTCLDY    78  54  43 NE6       30.13F
SIERRA VISTA   PTCLDY    79  43  27 SW8       30.19F
SAFFORD        PTCLDY    82  40  22 NW9       30.03F
$$

AZZ020-021-025-026-031-220900-
SOUTHWEST ARIZONA

CITY           SKY/WX    TMP DP  RH WIND       PRES   REMARKS
YUMA           NOT AVBL
$$

CAZ031-033-041-043-047-048-061-220900-
SOUTHERN CALIFORNIA

CITY           SKY/WX    TMP DP  RH WIND       PRES   REMARKS
DOWNTOWN L.A.  CLEAR     67  61  81 CALM      30.01S
L.A. AIRPORT   PTCLDY    67  62  84 S5        30.01F
SAN DIEGO      MOCLDY    70  62  76 N6        30.02F
BURBANK        CLEAR     67  60  78 E6        30.02S
ONTARIO        CLEAR     68  59  73 W5        30.02F
RIVERSIDE      CLEAR     69  59  70 W3        30.02F
PALM SPRINGS   CLEAR     84  56  38 S3        29.90F
EL CENTRO NAS  CLEAR     85  38  18 W6        29.84S
IMPERIAL       CLEAR     84  42  22 CALM      29.84S
BLYTHE         CLEAR     90  31  12 W9        29.87R
$$

NVZ020-UTZ003-220900-
SOUTHERN NEVADA-UTAH

CITY           SKY/WX    TMP DP  RH WIND       PRES   REMARKS
LAS VEGAS      NOT AVBL
SALT LAKE CITY PTCLDY    72  46  39 CALM      30.11R
$$

NMZ009-TXZ055-220900-
NEW MEXICO-WEST TEXAS

CITY           SKY/WX    TMP DP  RH WIND       PRES   REMARKS
ALBUQUERQUE    CLOUDY    81  49  32 E12       30.23F
EL PASO        PTCLDY    81  56  42 SW8       30.09S
$$


........................KEY........................
SKY/WX - SKY CONDITION/WEATHER
TMP    - TEMPERATURE IN FAHRENHEIT
DP     - DEW POINT IN FAHRENHEIT
RH     - RELATIVE HUMIDITY IN PERCENT
WIND   - DIRECTION AND SPEED IN MILES PER HOUR (MPH)
VRB    - VARIABLE WIND DIRECTION
PRES   - MEAN SEA LEVEL PRESSURE IN INCHES OF MERCURY
         F - FALLING PRESSURE   R - RISING PRESSURE
         S - STEADY PRESSURE
VSB    - VISIBILITY IN MILES
HX     - HEAT INDEX IN FAHRENHEIT
WCI    - WIND CHILL INDEX IN FAHRENHEIT
TC     - TEMPERATURE IN CELSIUS WHICH IS ALSO KNOWN AS
         TEMPERATURE IN CENTIGRADE
AFB    - AIR FORCE BASE
         LUKE AFB IS LUKE AIR FORCE BASE
         DAVIS-MONTHAN IS DAVIS-MONTHAN AIR FORCE BASE
NAS    - NAVAL AIR STATION
         EL CENTRO NAS IS EL CENTRO NAVAL AIR STATION
N/A    - NOT AVAILABLE


USA.gov is the U.S. government's official web portal to all federal, state and local government web resources and services.